Showing default

IRIDIUM 173, 43925

Orbit data source: Space-Track

IRIDIUM 173, 43925 is a payload satellite owned by Iridium (US) in LEO that was launched on Fri, 11 Jan 2019 UTC via an FALCON 9 launch vehicle from the Air Force Western Test Range (AFWTR). Payload-class satellites include a variety of spacecraft equipped with specific instruments for various scientific and technological missions. These include communications satellites like Starlink; space stations such as the ISS; scientific satellites like the Hubble; Earth observation satellites from companies like Planet Labs, Umbra, and HawkEye 360; GPS; miniature CubeSats for education and research; and military/defense satellites.

Loading next visibility...
Identifier
43925, 2019-002D
Orbit
LEO
Country
Flag of USUS
Related business
Manufacturer
NGIS SSG Gilbert
Mission
Operational Commercial Communications
Bus & Motor
ELITEBUS, Unknown motor
Mass
860 kg wet, 700 kg dry
Launch date (UTC)
2019-01-11 (7 years ago)
Launch vehicle
FALCON 9
Launch site
Air Force Western Test Range (AFWTR)
Object type
Payload
Rocket body
Debris
Shape & HBR
Trap Box + 2 Pan, 4.8 m
Radar Cross Section
10.154 m², Large (>1 m²)

Expand to show TLE details & history
Last TLE update: 9 hours ago

TLE from 9 hours ago
0 IRIDIUM 173
1 43925U 19002D   26125.41859888  .00000074  00000-0  19196-4 0  9993
2 43925  86.4006  11.4401 0002235  87.5622 272.5830 14.34218061382822
Epoch: 2026-05-05T10:02Z
TLE epoch observation values (Epoch: 2026-05-05T10:02:46.943Z)
Latitude
0.00002°
Longitude
-2.54922°
Altitude
780.645 km
Speed
7.464 km/s
True Right ascension
00h 45m 45s
True Declination
0° 00' 00"
Sunlit
Object was in daylight at epoch
Visualization orbit readout
Latitude
Unknown
Longitude
Unknown
Altitude
Unknown
Speed
Unknown
Apparent Right ascension
Unknown
Apparent Declination
Unknown
Sunlit
N/A
Visualization observer readout
Local Sidereal Time
02:36:01
Azimuth
Unknown
Elevation
Unknown
Doppler factor
Unknown
Orbital elements
Apogee altitude
776.229 km
Perigee altitude
773.032 km
Semi-major axis
7,152.768 km
Eccentricity
0.00022
Inclination
86.4006°
RAAN
11.4401°
Arg. of periapsis
87.5622°
True anomaly
272.55741°
Mean anomaly
272.583°
Eccentric anomaly
272.57021°
Mean motion
3.58783 °/min
Orbital period
100.34 mins
BSTAR
0.000019196
Loading maneuver chart data...
Computing Atmospheric mass density...
Loading historical data...
Loading historical data...
Loading historical data...
Loading historical data...
Loading historical data...
Loading historical data...
Loading historical data...

Documentation

Showing up to 5 results
|